1499857200.98,54776,20.19,74022.8,25.29,9.11,9.71,0,*40
1499857202.19,54777,20.25,74026.0,25.29,8.93,9.33,0,*4C
1499857203.44,54778,20.19,74024.3,25.27,8.93,9.39,0,*47
1499857204.67,54779,20.25,74026.0,25.27,9.71,10.13,0,*7B
1499857205.88,54780,20.19,74024.3,25.25,8.59,8.79,0,*41
1499857207.1,54781,20.19,74024.0,25.21,9.61,9.85,0,*4C
1499857208.29,54782,20.19,74022.5,25.21,9.29,9.39,0,*44
1499857209.49,54783,20.25,74026.5,25.21,8.61,8.71,0,*45
1499857210.69,54784,20.19,74026.0,25.19,8.69,8.69,0,*48
1499857211.89,54785,20.19,74026.3,25.15,8.65,8.65,0,*45
1499857213.12,54786,20.25,74028.5,25.11,8.61,8.55,0,*45
1499857214.35,54787,20.25,74026.8,25.11,9.21,9.11,0,*40
1499857215.6,54788,20.25,74024.0,25.07,9.35,9.15,0,*49
1499857216.82,54789,20.25,74028.0,25.07,9.33,9.11,0,*4A
1499857218.03,54790,20.19,74024.0,25.07,9.71,9.47,0,*47
1499857219.22,54791,20.19,74022.3,25.05,10.51,10.13,0,*47
1499857220.44,54792,20.19,74024.8,25.03,10.09,9.75,0,*77
1499857221.65,54793,20.25,74026.5,25.03,10.13,9.67,0,*7E
1499857222.86,54794,20.25,74024.3,25.01,9.49,8.87,0,*43
1499857224.06,54795,20.25,74024.5,24.99,9.99,9.33,0,*41
1499857225.27,54796,20.25,74026.3,24.99,10.47,9.99,0,*79
1499857226.53,54797,20.25,74026.5,24.99,10.23,9.35,0,*7C
1499857227.75,54798,20.25,74028.3,24.97,9.61,8.71,0,*42
1499857228.99,54799,20.19,74024.0,24.93,9.85,9.19,0,*42
1499857230.17,54800,20.25,74026.0,24.93,9.75,8.79,0,*45
1499857231.4,54801,20.19,74022.8,24.93,9.85,8.89,0,*44
1499857232.61,54802,20.25,74030.0,24.89,9.11,8.01,0,*41
1499857233.84,54803,20.19,74024.3,24.89,10.71,9.57,0,*7C
1499857235.1,54804,20.25,74026.3,24.87,9.81,8.37,0,*45
1499857236.3,54805,20.25,74026.0,24.85,8.89,7.33,0,*44
1499857237.51,54806,20.25,74026.0,24.81,8.89,7.33,0,*43
1499857238.71,54807,20.25,74026.8,24.81,9.47,7.91,0,*49
1499857239.92,54808,20.19,74024.0,24.77,9.01,7.33,0,*45
1499857241.15,54809,20.25,74024.8,24.73,8.97,7.29,0,*45
1499857242.37,54810,20.19,74022.8,24.73,8.75,7.05,0,*4F
1499857243.57,54811,20.25,74024.0,24.67,9.11,7.33,0,*4D
1499857244.83,54812,20.19,74026.3,24.65,9.49,7.61,0,*46
1499857246.06,54813,20.25,74024.0,24.65,9.33,7.47,0,*4E
1499857247.27,54814,20.25,74026.3,24.63,9.11,7.41,0,*49
1499857248.46,54815,20.19,74024.5,24.59,9.11,7.33,0,*44
1499857249.66,54816,20.19,74024.3,24.59,9.15,7.33,0,*43
1499857250.89,54817,20.25,74026.0,24.57,9.29,7.65,0,*40
1499857252.12,54818,20.25,74024.5,24.55,9.53,7.83,0,*48
1499857253.3,54819,20.25,74024.5,24.51,9.21,7.55,0,*43
1499857254.53,54820,20.19,74020.8,24.53,9.07,7.47,0,*4C
1499857255.77,54821,20.25,74024.3,24.47,8.55,6.87,0,*43
1499857257.0,54822,20.25,74030.0,24.45,7.95,6.29,0,*45
1499857258.23,54823,20.25,74024.5,24.41,8.71,7.69,0,*40
1499857259.45,54824,20.25,74024.3,24.43,9.91,8.47,0,*49
1499857260.68,54825,20.25,74026.0,24.39,9.35,7.79,0,*49
1499857261.88,54826,20.25,74024.3,24.37,9.21,7.83,0,*44
1499857263.08,54827,20.25,74028.3,24.37,9.21,7.91,0,*46
1499857264.28,54828,20.19,74022.5,24.35,10.05,8.65,0,*71
1499857265.48,54829,20.25,74024.5,24.35,9.25,7.97,0,*48
1499857266.71,54830,20.25,74026.3,24.33,9.15,7.77,0,*4B
1499857267.93,54831,20.25,74030.3,24.33,8.33,6.87,0,*41
1499857269.13,54832,20.25,74026.5,24.29,8.01,6.53,0,*41
1499857270.35,54833,20.25,74026.5,24.23,8.01,6.57,0,*4E
1499857271.54,54834,20.19,74024.3,24.23,8.45,7.01,0,*4B
1499857272.81,54835,20.25,74026.8,24.19,9.39,8.13,0,*45
1499857274.04,54836,20.25,74028.5,24.19,8.75,7.29,0,*49
1499857275.24,54837,20.19,74022.0,24.17,8.45,7.15,0,*4A
1499857276.47,54838,20.25,74026.3,24.17,8.97,7.65,0,*4D
1499857277.7,54839,20.25,74026.3,24.15,9.35,8.01,0,*4A
1499857278.89,54840,20.25,74028.3,24.13,9.47,8.15,0,*42
1499857280.08,54841,20.25,74026.3,24.13,9.29,8.15,0,*4B
1499857281.28,54842,20.25,74026.8,24.11,9.67,8.51,0,*40
1499857282.51,54843,20.25,74024.5,24.13,9.57,8.47,0,*47
1499857283.69,54844,20.19,74020.8,24.11,9.63,8.69,0,*49
1499857284.91,54845,20.25,74026.0,24.11,10.19,9.15,0,*77
1499857286.1,54846,20.25,74026.3,24.11,9.43,8.45,0,*47
1499857287.3,54847,20.25,74026.8,24.11,9.15,8.09,0,*4D
1499857288.51,54848,20.25,74024.8,24.11,9.47,8.55,0,*4C
1499857289.74,54849,20.25,74024.8,24.07,9.85,8.97,0,*4A
1499857290.95,54850,20.25,74026.8,24.09,9.95,9.07,0,*45
1499857292.18,54851,20.25,74022.8,24.09,9.11,8.27,0,*4B
1499857293.39,54852,20.25,74022.0,24.07,8.65,7.77,0,*4E
1499857294.57,54853,20.25,74026.0,24.07,9.63,8.83,0,*4C
1499857295.75,54854,20.25,74026.0,24.07,10.09,9.43,0,*72
1499857296.98,54855,20.25,74026.5,24.05,7.91,7.05,0,*4A
1499857298.21,54856,20.25,74024.3,24.01,8.37,7.55,0,*4B
1499857299.4,54857,20.25,74026.0,23.99,8.15,7.29,0,*47
1499857300.63,54858,20.25,74026.8,23.97,8.19,7.29,0,*4A
1499857301.86,54859,20.25,74026.8,23.93,7.79,6.87,0,*43
1499857303.07,54860,20.25,74024.0,23.91,7.15,6.25,0,*49
1499857304.28,54861,20.25,74024.5,23.85,6.79,5.95,0,*4E
1499857305.53,54862,20.25,74024.0,23.85,8.47,7.47,0,*43
1499857306.75,54863,20.25,74020.8,23.79,5.27,4.15,0,*4E
1499857307.97,54864,20.19,74020.0,23.75,4.57,3.37,0,*44
1499857309.21,54865,20.25,74024.8,23.69,4.97,3.71,0,*46
1499857310.42,54866,20.25,74024.5,23.63,6.29,5.11,0,*48
1499857311.62,54867,20.25,74030.0,23.57,5.15,3.79,0,*4A
1499857312.82,54868,20.25,74030.0,23.55,4.85,3.63,0,*44
1499857314.0,54869,20.25,74028.5,23.47,6.83,5.63,0,*44
1499857315.23,54870,20.25,74030.0,23.45,5.15,3.71,0,*47
1499857316.45,54871,20.25,74024.0,23.41,5.77,4.37,0,*43
1499857317.68,54872,20.25,74024.8,23.37,3.79,2.31,0,*49
1499857318.92,54873,20.25,74028.5,23.33,4.37,2.77,0,*43
1499857320.12,54874,20.25,74024.3,23.27,6.69,5.29,0,*44
1499857321.33,54875,20.25,74026.0,23.29,7.59,6.21,0,*42
1499857322.59,54876,20.25,74024.3,23.25,7.47,6.17,0,*47
1499857323.85,54877,20.25,74024.5,23.25,7.47,5.93,0,*49
1499857325.09,54878,20.25,74022.5,23.27,5.89,4.71,0,*49
1499857326.33,54879,20.25,74022.0,23.23,5.93,4.79,0,*4F
1499857327.54,54880,20.25,74026.0,23.23,6.07,4.97,0,*47
1499857328.77,54881,20.25,74020.5,23.21,6.25,5.11,0,*4B
1499857329.96,54882,20.25,74026.3,23.19,4.37,3.29,0,*4F
1499857331.19,54883,20.25,74024.8,23.15,4.45,3.33,0,*4C
1499857332.4,54884,20.25,74024.3,23.09,4.41,3.41,0,*47
1499857333.58,54885,20.25,74026.5,23.05,4.23,3.25,0,*4C
1499857334.79,54886,20.25,74024.0,23.05,5.59,4.79,0,*4D
1499857335.96,54887,20.25,74024.8,23.01,5.67,4.89,0,*4A
1499857337.18,54888,20.25,74024.8,23.01,5.89,5.11,0,*45
1499857338.38,54889,20.25,74024.0,22.99,6.83,6.21,0,*4D
1499857339.64,54890,20.25,74022.0,22.99,7.65,7.23,0,*4F
1499857340.87,54891,20.25,74022.0,22.99,7.73,7.37,0,*4C
1499857342.06,54892,20.25,74022.0,22.97,6.21,5.71,0,*47
1499857343.27,54893,20.25,74020.5,22.97,6.83,6.43,0,*4C
1499857344.47,54894,20.25,74022.8,22.97,6.75,6.57,0,*47
1499857345.67,54895,20.25,74024.8,22.93,7.15,7.05,0,*43
1499857346.87,54896,20.25,74020.8,22.93,7.19,7.05,0,*4C
1499857348.07,54897,20.25,74022.8,22.93,7.47,7.37,0,*47
1499857349.26,54898,20.25,74020.8,22.93,7.59,7.51,0,*47
1499857350.46,54899,20.25,74022.5,22.93,7.65,7.51,0,*49
1499857351.67,54900,20.25,74022.0,22.93,7.09,6.91,0,*4F
1499857352.91,54901,20.25,74022.8,22.87,6.61,6.21,0,*4F
1499857354.12,54902,20.25,74026.0,22.83,6.29,5.93,0,*4E
1499857355.3,54903,20.25,74020.8,22.83,6.07,5.59,0,*45
1499857356.51,54904,20.25,74022.5,22.79,6.43,5.95,0,*47
1499857357.73,54905,20.25,74022.8,22.75,6.47,6.03,0,*42
1499857358.93,54906,20.25,74020.8,22.75,7.41,6.87,0,*4A
1499857360.14,54907,20.25,74026.5,22.71,7.01,6.47,0,*47
1499857361.34,54908,20.25,74020.8,22.71,8.09,7.69,0,*42
1499857362.61,54909,20.25,74024.0,22.73,8.41,7.95,0,*4E
1499857363.85,54910,20.25,74026.5,22.73,8.37,7.79,0,*45
1499857365.03,54911,20.25,74020.8,22.67,8.79,8.23,0,*4B
1499857366.29,54912,20.25,74022.5,22.73,8.97,8.41,0,*49
1499857367.47,54913,20.25,74020.8,22.71,8.09,7.33,0,*47
1499857368.65,54914,20.25,74024.8,22.67,7.59,6.97,0,*42
1499857369.86,54915,20.25,74026.8,22.65,8.09,7.41,0,*41
1499857371.07,54916,20.25,74024.8,22.67,9.01,8.45,0,*42
1499857372.27,54917,20.25,74020.3,22.71,9.25,8.71,0,*45
1499857373.51,54918,20.25,74026.3,22.67,8.93,8.55,0,*47
1499857374.73,54919,20.25,74022.5,22.67,10.13,9.77,0,*76
1499857375.94,54920,20.25,74024.3,22.67,9.77,9.21,0,*45
1499857377.14,54921,20.25,74022.5,22.73,9.29,8.83,0,*43
1499857378.33,54922,20.25,74028.0,22.71,9.71,9.25,0,*42
1499857379.54,54923,20.25,74026.5,22.71,9.03,8.59,0,*4C
1499857380.75,54924,20.25,74026.5,22.71,8.71,8.27,0,*46
1499857381.96,54925,20.25,74024.3,22.71,8.87,8.37,0,*4F
1499857383.17,54926,20.25,74024.8,22.71,8.87,8.41,0,*4D
1499857384.4,54927,20.25,74020.8,22.73,8.97,8.69,0,*45
1499857385.63,54928,20.25,74024.0,22.73,9.63,9.39,0,*44
1499857386.86,54929,20.25,74024.3,22.73,9.61,9.47,0,*4E
1499857388.1,54930,20.25,74026.8,22.73,8.37,8.09,0,*4F
1499857389.33,54931,20.25,74020.5,22.73,7.33,7.27,0,*46
1499857390.54,54932,20.25,74024.3,22.71,7.79,7.73,0,*48
1499857391.72,54933,20.25,74024.0,22.67,8.01,8.01,0,*44
1499857392.93,54934,20.25,74024.0,22.71,7.79,7.83,0,*41
1499857394.19,54935,20.25,74024.0,22.65,7.61,7.83,0,*4C
1499857395.42,54936,20.25,74022.3,22.65,7.45,7.73,0,*46
1499857396.65,54937,20.25,74024.3,22.65,7.83,8.01,0,*47
1499857397.86,54938,20.25,74024.0,22.63,6.97,7.19,0,*4C
1499857399.09,54939,20.25,74024.0,22.61,6.91,6.93,0,*4A
1499857400.32,54940,20.25,74026.5,22.57,7.27,7.55,0,*46
1499857401.56,54941,20.25,74022.5,22.57,8.47,8.83,0,*4A
1499857402.79,54942,20.25,74024.3,22.57,8.55,8.79,0,*4F
1499857404.03,54943,20.25,74026.3,22.57,8.59,8.83,0,*47
1499857405.21,54944,20.25,74022.8,22.55,8.61,8.69,0,*4D
1499857406.43,54945,20.25,74022.8,22.55,8.29,8.33,0,*4F
1499857407.69,54946,20.25,74024.5,22.53,7.47,7.47,0,*41
1499857408.94,54947,20.25,74022.3,22.53,7.87,7.69,0,*40
1499857410.2,54948,20.25,74020.5,22.49,7.23,7.11,0,*45
1499857411.41,54949,20.25,74024.0,22.49,7.79,7.55,0,*4B
1499857412.64,54950,20.25,74024.0,22.47,7.61,7.23,0,*45
1499857413.85,54951,20.25,74024.8,22.43,7.27,6.83,0,*49
1499857415.08,54952,20.25,74022.5,22.39,7.47,7.15,0,*4F
1499857416.3,54953,20.25,74024.5,22.37,7.69,7.45,0,*49
1499857417.52,54954,20.25,74026.5,22.35,8.27,7.77,0,*48
1499857418.73,54955,20.25,74024.8,22.35,8.19,7.65,0,*47
1499857419.95,54956,20.25,74022.5,22.35,7.15,6.69,0,*4A
1499857421.18,54957,20.25,74024.0,22.31,6.43,5.85,0,*4C
1499857422.4,54958,20.25,74022.3,22.27,6.51,6.11,0,*49
1499857423.61,54959,20.25,74022.8,22.25,6.79,6.29,0,*4B
1499857424.8,54960,20.25,74024.5,22.21,7.33,6.83,0,*4A
1499857425.98,54961,20.25,74024.8,22.17,7.79,7.33,0,*4A
1499857427.21,54962,20.25,74020.8,22.17,7.23,6.65,0,*44
1499857428.44,54963,20.25,74020.8,22.13,7.11,6.47,0,*40
1499857429.65,54964,20.25,74026.8,22.09,7.79,7.19,0,*48
1499857430.87,54965,20.25,74020.0,22.09,7.87,7.19,0,*48
1499857432.05,54966,20.25,74024.3,22.09,8.09,7.45,0,*4B
1499857433.31,54967,20.25,74026.3,22.07,7.95,7.15,0,*4B
1499857434.52,54968,20.25,74020.5,22.07,8.09,7.29,0,*41
1499857435.73,54969,20.25,74022.3,22.03,6.93,6.21,0,*40
1499857436.96,54970,20.25,74024.5,21.99,7.19,6.29,0,*43
1499857438.15,54971,20.25,74024.5,21.97,7.45,6.61,0,*49
1499857439.42,54972,20.25,74026.5,21.95,8.47,7.69,0,*4C
1499857440.65,54973,20.25,74026.8,21.95,8.29,7.29,0,*41
1499857441.88,54974,20.25,74024.8,21.95,8.05,7.11,0,*43
1499857443.07,54975,20.25,74020.5,21.93,8.83,8.05,0,*40
1499857444.28,54976,20.25,74024.8,21.93,9.33,8.59,0,*40
1499857445.51,54977,20.25,74024.3,21.93,9.85,9.15,0,*45
1499857446.69,54978,20.25,74020.5,21.93,9.91,9.07,0,*4C
1499857447.88,54979,20.25,74022.5,21.97,10.13,9.43,0,*7B
1499857449.11,54980,20.25,74024.3,21.95,9.91,9.15,0,*4E
1499857450.32,54981,20.25,74024.0,21.97,10.75,9.99,0,*7B
1499857451.6,54982,20.25,74024.3,21.99,11.45,10.65,0,*4F
1499857452.84,54983,20.25,74024.8,22.03,10.51,9.81,0,*78
1499857454.11,54984,20.25,74022.3,22.07,10.99,10.23,0,*4F
1499857455.37,54985,20.25,74026.5,22.07,12.05,11.71,0,*4F
1499857456.61,54986,20.25,74022.5,22.15,12.87,12.27,0,*45
1499857457.85,54987,20.25,74026.5,22.19,12.53,11.99,0,*47
1499857459.11,54988,20.25,74024.5,22.19,11.75,11.23,0,*4E
1499857460.36,54989,20.25,74024.0,22.25,12.17,11.51,0,*42
1499857461.62,54990,20.25,74024.3,22.29,12.63,12.09,0,*4B
1499857462.88,54991,20.25,74020.5,22.33,12.13,11.57,0,*4E
1499857464.13,54992,20.25,74022.8,22.37,12.09,11.55,0,*40
1499857465.34,54993,20.25,74024.8,22.39,11.85,11.33,0,*48
1499857466.53,54994,20.25,74024.0,22.43,12.27,11.81,0,*40
1499857467.74,54995,20.25,74022.8,22.47,12.47,11.95,0,*46
1499857468.99,54996,20.25,74026.0,22.53,13.01,12.73,0,*48
1499857470.21,54997,20.25,74026.8,22.55,12.67,12.19,0,*42
1499857471.44,54998,20.25,74020.8,22.59,12.17,11.67,0,*4C
1499857472.68,54999,20.25,74022.8,22.63,12.17,11.75,0,*47
1499857473.92,55000,20.25,74026.0,22.67,12.53,12.05,0,*4F
1499857475.15,55001,20.25,74026.8,22.73,12.33,11.93,0,*41
1499857476.39,55002,20.25,74026.5,22.77,12.61,12.05,0,*4D
1499857477.64,55003,20.25,74026.8,22.81,12.67,12.19,0,*4E
1499857478.88,55004,20.25,74026.5,22.83,12.17,11.61,0,*40
1499857480.13,55005,20.25,74026.3,22.85,13.39,12.83,0,*45
1499857481.35,55006,20.25,74026.5,22.89,12.33,11.65,0,*4A
1499857482.56,55007,20.25,74020.5,22.89,10.57,9.91,0,*79
1499857483.79,55008,20.25,74020.3,22.93,9.77,8.97,0,*40
1499857484.99,55009,20.25,74024.0,22.93,10.51,9.77,0,*72
1499857486.23,55010,20.25,74024.8,22.93,11.27,10.65,0,*41
1499857487.48,55011,20.25,74024.0,22.95,10.79,10.03,0,*4C
1499857488.7,55012,20.25,74024.3,22.95,10.41,9.67,0,*7E
1499857489.93,55013,20.25,74026.3,22.95,9.25,8.47,0,*46
1499857491.15,55014,20.25,74024.0,22.95,8.97,8.23,0,*4B
1499857492.39,55015,20.25,74026.3,22.93,8.41,7.77,0,*49
1499857493.6,55016,20.25,74026.3,22.89,8.61,7.91,0,*4B
1499857494.83,55017,20.25,74022.3,22.87,8.33,7.55,0,*4B
1499857496.06,55018,20.25,74024.8,22.83,8.75,7.95,0,*4E
1499857497.24,55019,20.25,74024.3,22.83,8.09,7.37,0,*4C
1499857498.48,55020,20.25,74024.0,22.81,8.29,7.47,0,*41
1499857499.69,55021,20.25,74026.5,22.79,6.43,5.29,0,*4F
1499857500.9,55022,20.25,74024.0,22.75,7.27,6.29,0,*40
1499857502.08,55023,20.25,74024.8,22.71,7.33,6.25,0,*4C
1499857503.3,55024,20.25,74022.5,22.71,7.23,6.13,0,*4F
1499857504.52,55025,20.25,74024.5,22.63,6.35,5.33,0,*4A
1499857505.75,55026,20.25,74024.0,22.61,6.53,5.45,0,*4A
1499857506.93,55027,20.25,74026.0,22.59,5.95,4.89,0,*48
1499857508.17,55028,20.25,74024.0,22.53,6.13,5.19,0,*48
1499857509.39,55029,20.25,74024.5,22.53,7.05,6.03,0,*47
1499857510.62,55030,20.25,74024.3,22.49,7.15,6.11,0,*46
1499857511.82,55031,20.25,74024.5,22.49,7.01,5.95,0,*4D
1499857513.03,55032,20.25,74022.0,22.47,6.61,5.59,0,*47
1499857514.28,55033,20.25,74026.5,22.43,6.51,5.55,0,*4D
1499857515.49,55034,20.25,74026.8,22.39,6.43,5.67,0,*45
1499857516.7,55035,20.25,74026.5,22.37,6.97,6.29,0,*4A
1499857517.89,55036,20.25,74022.8,22.35,6.03,5.19,0,*46
1499857519.09,55037,20.25,74024.8,22.33,5.45,4.81,0,*40
1499857520.3,55038,20.25,74024.0,22.31,6.57,5.99,0,*45
1499857521.5,55039,20.25,74024.8,22.29,6.75,6.29,0,*45
1499857522.7,55040,20.25,74024.8,22.27,7.09,6.73,0,*40
1499857523.88,55041,20.25,74022.3,22.27,7.41,7.05,0,*4D
1499857525.1,55042,20.25,74026.5,22.25,6.57,6.29,0,*45
1499857526.33,55043,20.25,74024.8,22.25,6.75,6.57,0,*4D
1499857527.54,55044,20.25,74024.0,22.21,6.33,6.21,0,*4D
1499857528.8,55045,20.25,74024.5,22.21,6.43,6.35,0,*4E
1499857530.01,55046,20.25,74022.3,22.19,6.21,6.29,0,*4F
1499857531.24,55047,20.25,74022.8,22.17,6.17,6.43,0,*49
1499857532.45,55048,20.25,74024.3,22.15,6.03,6.29,0,*4D
1499857533.65,55049,20.25,74024.0,22.15,5.59,6.07,0,*4C
1499857534.85,55050,20.25,74022.5,22.13,5.55,6.03,0,*4A
1499857536.05,55051,20.25,74024.8,22.11,5.63,6.21,0,*4C
1499857537.23,55052,20.25,74026.0,22.09,5.59,6.29,0,*47
1499857538.45,55053,20.25,74020.0,22.05,5.73,6.53,0,*4F
1499857539.67,55054,20.25,74024.0,22.05,5.85,6.69,0,*48
1499857540.89,55055,20.25,74024.0,22.05,5.51,6.43,0,*48
1499857542.12,55056,20.25,74022.8,22.05,5.05,5.89,0,*4F
1499857543.38,55057,20.25,74022.0,21.99,4.79,5.81,0,*4A
1499857544.64,55058,20.25,74026.0,21.99,4.79,5.81,0,*45
1499857545.84,55059,20.25,74020.5,21.95,5.07,6.21,0,*49
1499857547.07,55060,20.25,74022.8,21.95,4.85,5.93,0,*42
1499857548.28,55061,20.25,74024.0,21.91,5.07,6.21,0,*46
1499857549.5,55062,20.25,74022.8,21.91,5.49,6.57,0,*4E
1499857550.69,55063,20.25,74024.0,21.89,5.45,6.61,0,*4F
1499857551.9,55064,20.25,74020.0,21.89,5.23,6.43,0,*48
1499857553.11,55065,20.25,74024.0,21.87,5.01,6.25,0,*47
1499857554.32,55066,20.25,74026.3,21.87,5.23,6.47,0,*40
1499857555.56,55067,20.25,74022.8,21.87,6.35,7.61,0,*40
1499857556.79,55068,20.25,74024.0,21.89,6.87,7.91,0,*47
1499857558.0,55069,20.25,74026.0,21.87,7.41,8.55,0,*44
1499857559.21,55070,20.25,74024.5,21.89,6.39,7.55,0,*43
1499857560.42,55071,20.25,74022.5,21.87,5.89,6.93,0,*4F
1499857561.63,55072,20.25,74020.5,21.89,5.93,7.05,0,*47
1499857562.81,55073,20.25,74020.8,21.87,6.33,7.41,0,*41
1499857564.05,55074,20.25,74022.3,21.85,6.57,7.59,0,*4F
1499857565.25,55075,20.25,74024.3,21.85,7.05,7.97,0,*4A
1499857566.51,55076,20.25,74022.8,21.85,6.73,7.83,0,*4C
1499857567.74,55077,20.25,74020.5,21.85,7.27,8.19,0,*41
1499857568.95,55078,20.25,74022.8,21.83,5.89,6.75,0,*4A
1499857570.13,55079,20.25,74022.5,21.83,5.15,5.99,0,*4F
1499857571.39,55080,20.25,74020.5,21.81,5.89,6.65,0,*4E
1499857572.61,55081,20.25,74016.8,21.79,5.55,6.39,0,*40
1499857573.84,55082,20.25,74020.3,21.73,7.01,7.95,0,*4D
1499857575.07,55083,20.25,74018.3,21.73,7.55,8.33,0,*4E
1499857576.33,55084,20.25,74018.3,21.73,6.47,7.11,0,*44
1499857577.55,55085,20.25,74016.0,21.71,7.27,8.15,0,*4B
1499857578.76,55086,20.25,74016.8,21.75,6.93,7.69,0,*46
1499857579.99,55087,20.25,74018.5,21.73,7.33,7.95,0,*49
1499857581.2,55088,20.25,74022.3,21.71,8.01,8.51,0,*4D
1499857582.41,55089,20.25,74016.0,21.71,8.47,8.83,0,*41
1499857583.65,55090,20.25,74016.0,21.69,8.47,8.87,0,*44
1499857584.88,55091,20.25,74016.3,21.69,8.33,8.65,0,*4A
1499857586.14,55092,20.25,74018.3,21.69,8.29,8.55,0,*41
1499857587.35,55093,20.25,74020.3,21.71,8.23,8.41,0,*46
1499857588.59,55094,20.25,74020.8,21.69,8.87,8.97,0,*4D
1499857589.85,55095,20.25,74018.3,21.69,8.89,9.01,0,*4C
1499857591.09,55096,20.25,74018.8,21.69,7.79,7.87,0,*4F
1499857592.32,55097,20.25,74018.5,21.67,6.61,6.47,0,*45
1499857593.55,55098,20.25,74016.0,21.65,7.69,7.59,0,*4F
1499857594.79,55099,20.31,74022.0,21.61,7.69,7.59,0,*4A
1499857596.02,55100,20.25,74018.8,21.61,7.65,7.45,0,*4A
1499857597.23,55101,20.25,74022.8,21.59,7.47,7.29,0,*4A
1499857598.44,55102,20.25,74016.8,21.57,7.51,7.41,0,*4E
1499857599.67,55103,20.25,74016.8,21.51,8.01,7.87,0,*49
1499857600.91,55104,20.25,74022.8,21.51,8.37,8.45,0,*4A
1499857602.14,55105,20.25,74022.3,21.51,8.45,8.37,0,*4B
1499857603.36,55106,20.25,74020.3,21.51,8.01,7.79,0,*4D
1499857604.56,55107,20.25,74020.5,21.49,7.65,7.55,0,*46
1499857605.84,55108,20.25,74020.3,21.47,6.61,6.47,0,*40
1499857607.02,55109,20.25,74022.5,21.45,5.67,5.45,0,*47
1499857608.24,55110,20.25,74020.5,21.39,4.89,4.89,0,*44
1499857609.46,55111,20.25,74020.3,21.35,6.33,6.21,0,*4A
1499857610.7,55112,20.25,74018.5,21.29,6.51,6.35,0,*45
1499857611.91,55113,20.25,74022.0,21.29,6.75,6.51,0,*40
1499857613.14,55114,20.31,74022.5,21.29,6.61,6.13,0,*44
1499857614.39,55115,20.25,74020.3,21.25,7.27,6.91,0,*40
1499857615.6,55116,20.25,74020.3,21.25,7.83,7.51,0,*40
1499857616.82,55117,20.25,74020.3,21.23,8.45,8.13,0,*4B
1499857618.02,55118,20.31,74022.5,21.21,8.19,7.91,0,*4A
1499857619.25,55119,20.25,74020.3,21.23,8.45,8.13,0,*45
1499857620.46,55120,20.25,74022.0,21.25,8.29,8.09,0,*48
1499857621.7,55121,20.25,74020.3,21.25,7.95,7.69,0,*48
1499857622.91,55122,20.25,74022.8,21.25,7.19,6.93,0,*4B
1499857624.16,55123,20.31,74026.3,21.23,7.83,7.77,0,*44
1499857625.38,55124,20.31,74022.3,21.21,7.73,7.65,0,*4D
1499857626.6,55125,20.25,74022.0,21.21,5.85,5.73,0,*42
1499857627.77,55126,20.31,74022.8,21.17,4.85,4.81,0,*49
1499857628.97,55127,20.31,74022.8,21.15,5.67,5.63,0,*4A
1499857630.15,55128,20.25,74022.3,21.13,6.33,6.25,0,*40
1499857631.33,55129,20.25,74018.8,21.13,5.19,5.29,0,*45
1499857632.54,55130,20.25,74020.8,21.11,6.29,6.33,0,*47
1499857633.76,55131,20.25,74022.5,21.03,6.57,6.75,0,*4E
1499857634.93,55132,20.25,74020.3,21.05,6.75,6.75,0,*4B
1499857636.15,55133,20.25,74022.0,21.03,6.87,6.75,0,*41
1499857637.39,55134,20.31,74020.8,21.03,6.47,6.33,0,*48
1499857638.64,55135,20.31,74024.0,21.03,5.85,5.55,0,*47
1499857639.84,55136,20.25,74018.0,20.99,5.29,5.11,0,*40
1499857641.04,55137,20.25,74020.8,20.97,4.93,4.81,0,*47
1499857642.26,55138,20.25,74022.0,20.95,5.77,5.95,0,*45
1499857643.46,55139,20.25,74022.8,20.97,6.13,6.25,0,*4F
1499857644.66,55140,20.31,74024.5,20.91,6.07,6.13,0,*47
1499857645.88,55141,20.25,74022.3,20.91,6.17,6.17,0,*43
1499857647.11,55142,20.25,74020.5,20.91,6.51,6.61,0,*43
1499857648.34,55143,20.25,74024.5,20.89,5.81,6.03,0,*41
1499857649.57,55144,20.25,74022.5,20.85,6.25,6.43,0,*43
1499857650.8,55145,20.25,74020.3,20.85,3.71,3.55,0,*44
1499857652.03,55146,20.31,74022.0,20.81,3.75,3.85,0,*4A
1499857653.22,55147,20.31,74026.0,20.77,4.49,4.81,0,*49
1499857654.42,55148,20.31,74022.8,20.77,5.45,5.63,0,*46
1499857655.64,55149,20.31,74024.0,20.75,5.77,5.77,0,*41
1499857656.82,55150,20.31,74026.3,20.75,5.15,5.07,0,*4A
1499857658.03,55151,20.25,74018.5,20.73,4.33,4.37,0,*4A
1499857659.23,55152,20.31,74022.8,20.69,5.29,5.33,0,*4D
1499857660.45,55153,20.31,74022.8,20.69,5.11,5.19,0,*4F
1499857661.63,55154,20.25,74022.8,20.63,5.19,5.15,0,*46
1499857662.86,55155,20.25,74020.8,20.63,5.85,5.85,0,*4B
1499857664.1,55156,20.25,74020.3,20.63,6.39,6.43,0,*45
1499857665.33,55157,20.25,74022.5,20.63,6.65,6.53,0,*4C
1499857666.56,55158,20.25,74020.5,20.63,6.17,6.17,0,*46
1499857667.77,55159,20.25,74022.0,20.63,6.11,6.17,0,*41
1499857669.02,55160,20.31,74020.8,20.61,6.61,6.43,0,*4F
1499857670.25,55161,20.31,74026.0,20.59,6.39,6.29,0,*44
1499857671.5,55162,20.31,74026.8,20.61,6.53,6.39,0,*41
1499857672.7,55163,20.31,74022.8,20.59,5.59,5.45,0,*4A
1499857673.93,55164,20.25,74022.8,20.59,5.73,5.71,0,*42
1499857675.17,55165,20.25,74022.3,20.59,6.35,6.03,0,*44
1499857676.39,55166,20.25,74020.0,20.57,5.77,5.55,0,*4C
1499857677.65,55167,20.25,74022.5,20.55,5.73,5.51,0,*4F
1499857678.88,55168,20.25,74022.0,20.55,5.63,5.51,0,*41
1499857680.13,55169,20.25,74020.0,20.55,5.85,5.55,0,*4C
1499857681.35,55170,20.31,74022.8,20.55,5.51,5.37,0,*49
1499857682.56,55171,20.25,74022.0,20.53,6.03,5.81,0,*47
1499857683.75,55172,20.25,74020.8,20.53,6.33,6.25,0,*4A
1499857684.95,55173,20.25,74022.5,20.53,7.19,7.09,0,*4D
1499857686.16,55174,20.31,74024.5,20.53,6.43,6.33,0,*4C
1499857687.41,55175,20.31,74024.5,20.55,5.55,5.51,0,*48
1499857688.63,55176,20.25,74020.0,20.53,6.13,6.13,0,*49
1499857689.88,55177,20.31,74026.3,20.55,5.77,5.85,0,*43
1499857691.06,55178,20.25,74018.8,20.53,5.33,5.45,0,*46
1499857692.29,55179,20.31,74024.5,20.51,5.05,5.11,0,*41
1499857693.52,55180,20.31,74022.0,20.51,5.85,6.03,0,*4F
1499857694.72,55181,20.25,74020.5,20.53,5.63,5.81,0,*4D
1499857695.92,55182,20.31,74022.0,20.51,6.07,6.25,0,*40
1499857697.12,55183,20.25,74020.8,20.53,5.63,5.85,0,*4B
1499857698.38,55184,20.31,74026.5,20.51,6.17,6.51,0,*44
1499857699.58,55185,20.31,74026.8,20.53,5.81,6.07,0,*48
1499857700.8,55186,20.25,74022.8,20.55,6.79,7.11,0,*4F
1499857701.98,55187,20.25,74022.5,20.53,6.83,7.41,0,*48
1499857703.16,55188,20.31,74024.0,20.57,7.51,8.05,0,*42
1499857704.37,55189,20.25,74020.3,20.59,8.79,9.47,0,*4F
1499857705.57,55190,20.25,74022.8,20.67,10.41,11.17,0,*44
1499857706.81,55191,20.25,74020.8,20.73,11.67,12.43,0,*47
1499857708.07,55192,20.31,74022.8,20.81,10.79,11.57,0,*41
1499857709.26,55193,20.25,74022.5,20.91,10.55,11.51,0,*49
1499857710.51,55194,20.31,74022.8,20.95,10.37,11.37,0,*4E
1499857711.73,55195,20.25,74020.3,21.01,10.69,11.79,0,*42
1499857712.93,55196,20.25,74016.8,21.05,9.25,10.23,0,*7B
1499857714.2,55197,20.31,74022.0,21.11,9.15,10.31,0,*7F
1499857715.43,55198,20.25,74022.8,21.17,9.53,10.75,0,*74
1499857716.67,55199,20.31,74022.5,21.19,10.13,11.45,0,*45
1499857717.87,55200,20.25,74020.3,21.23,10.47,11.85,0,*42
1499857719.1,55201,20.31,74020.8,21.27,8.83,10.09,0,*73
1499857720.34,55202,20.25,74018.5,21.31,7.59,9.01,0,*4F